COSMOS 2251 DEB, 33765

Orbit data source: Space-Track

COSMOS 2251 DEB, 33765 is space debris in LEO originally from a launch on Wed, 16 Jun 1993 UTC launched from the Plesetsk Missile And Space Complex (PKMTR). The debris from Iridium 33, an American commercial communications satellite, has been tracked extensively since its accidental collision with the defunct Russian satellite Cosmos 2251 in 2009. This event, occurring at high speed in low Earth orbit (LEO), generated thousands of pieces of space debris, significantly increasing the risk of further collisions. The Iridium 33 debris cloud has impacted space traffic management and orbital debris mitigation strategies, making it a subject of ongoing study in space situational awareness.

Loading next visibility...
Identifier
33765, 1993-036N
Orbit
LEO
Country
Flag of CISCIS
Related business
Manufacturer
Unknown
Mission
Spacecraft
Bus & Motor
Unknown
Mass
Unknown
Launch date (UTC)
1993-06-16 (32 years ago)
Launch vehicle
Unknown
Launch site
Plesetsk Missile And Space Complex (PKMTR)
Object type
Payload
Rocket body
Debris
Shape & HBR
Unknown shape, 0.3 m
Radar Cross Section
Medium (>0.1 m² and <1 m²)

Expand to show TLE details & history
Last TLE update: 12 hours ago

TLE from 12 hours ago
0 COSMOS 2251 DEB
1 33765U 93036N   25300.61307006  .00035787  00000-0  23540-2 0  9994
2 33765  74.0109 268.1235 0073878   9.5489 109.3329 15.05143864889236
Epoch: 2025-10-27T14:42Z
TLE epoch observation values (Epoch: 2025-10-27T14:42:49.253Z)
Latitude
56.74856°
Longitude
165.44366°
Altitude
577.508 km
Speed
7.568 km/s
True Right ascension
04h 09m 26s
True Declination
56° 35' 12"
Sunlit
Object was in full shadow at epoch
Visualization orbit readout
Latitude
Unknown
Longitude
Unknown
Altitude
Unknown
Speed
Unknown
Apparent Right ascension
Unknown
Apparent Declination
Unknown
Sunlit
N/A
Visualization observer readout
Local Sidereal Time
22:16:58
Azimuth
Unknown
Elevation
Unknown
Doppler factor
Unknown
Orbital elements
Apogee altitude
599.788 km
Perigee altitude
497.441 km
Semi-major axis
6,926.751 km
Eccentricity
0.00739
Inclination
74.0109°
RAAN
268.1235°
Arg. of periapsis
9.5489°
True anomaly
110.12928°
Mean anomaly
109.3329°
Eccentric anomaly
109.73134°
Mean motion
3.76486 °/min
Orbital period
95.62 mins
BSTAR
0.002354
Loading maneuver chart data...
Computing Atmospheric mass density...

Documentation

Showing up to 5 results
|